Time,TemperatureF,DewpointF,PressureIn,WindDirection,WindDirectionDegrees,WindSpeedMPH,WindSpeedGustMPH,Humidity,HourlyPrecipIn,Conditions,Clouds,dailyrainin,SoftwareType,DateUTC
2013-06-11 00:02:00,67.0,40.0,-100.00,SSE,155,15.0,22.0,37,-99.99,,,-99.99,,2013-06-11 07:02:00,
2013-06-11 01:02:00,64.0,40.0,-100.00,SSE,155,16.0,27.0,41,-99.99,,,-99.99,,2013-06-11 08:02:00,
2013-06-11 01:12:00,64.0,40.0,-100.00,SSE,155,16.0,27.0,41,-99.99,,,-99.99,,2013-06-11 08:12:00,
2013-06-11 02:02:00,64.0,40.0,-100.00,SE,145,18.0,24.0,41,-99.99,,,-99.99,,2013-06-11 09:02:00,
2013-06-11 03:03:00,62.0,39.0,-100.00,SSE,150,18.0,24.0,42,-99.99,,,-99.99,,2013-06-11 10:03:00,
2013-06-11 03:12:00,62.0,39.0,-100.00,SSE,150,18.0,24.0,42,-99.99,,,-99.99,,2013-06-11 10:12:00,
2013-06-11 04:02:00,61.0,39.0,-100.00,SSE,160,16.0,27.0,44,-99.99,,,-99.99,,2013-06-11 11:02:00,
2013-06-11 05:02:00,60.0,38.0,-100.00,SSE,155,17.0,28.0,43,-99.99,,,-99.99,,2013-06-11 12:02:00,
2013-06-11 05:12:00,60.0,38.0,-100.00,SSE,155,17.0,28.0,43,-99.99,,,-99.99,,2013-06-11 12:12:00,
2013-06-11 06:02:00,60.0,38.0,-100.00,SSE,165,13.0,28.0,43,-99.99,,,-99.99,,2013-06-11 13:02:00,
2013-06-11 06:10:00,60.0,39.0,-100.00,SSE,155,13.0,22.0,45,-99.99,,,-99.99,,2013-06-11 13:10:00,
2013-06-11 07:02:00,60.0,39.0,-100.00,SSE,155,13.0,22.0,45,-99.99,,,-99.99,,2013-06-11 14:02:00,
2013-06-11 08:02:00,60.0,40.0,-100.00,SSE,155,12.0,18.0,47,-99.99,,,-99.99,,2013-06-11 15:02:00,
2013-06-11 08:10:00,64.0,41.0,-100.00,SSE,155,14.0,24.0,42,-99.99,,,-99.99,,2013-06-11 15:10:00,
2013-06-11 09:00:00,64.0,41.0,-100.00,SSE,160,15.0,22.0,42,-99.99,,,-99.99,,2013-06-11 16:00:00,
2013-06-11 09:02:00,64.0,41.0,-100.00,SSE,155,14.0,24.0,42,-99.99,,,-99.99,,2013-06-11 16:02:00,
2013-06-11 10:10:00,67.0,41.0,-100.00,SE,145,17.0,21.0,38,-99.99,,,-99.99,,2013-06-11 17:10:00,
2013-06-11 11:02:00,67.0,41.0,-100.00,SE,145,17.0,21.0,38,-99.99,,,-99.99,,2013-06-11 18:02:00,
2013-06-11 11:20:00,70.0,42.0,-100.00,SSE,160,10.0,20.0,36,-99.99,,,-99.99,,2013-06-11 18:20:00,
2013-06-11 12:02:00,70.0,42.0,-100.00,SSE,160,10.0,20.0,36,-99.99,,,-99.99,,2013-06-11 19:02:00,
2013-06-11 12:10:00,70.0,40.0,-100.00,SSE,150,12.0,22.0,33,-99.99,,,-99.99,,2013-06-11 19:10:00,
2013-06-11 12:12:00,70.0,42.0,-100.00,SSE,160,10.0,20.0,36,-99.99,,,-99.99,,2013-06-11 19:12:00,
2013-06-11 13:02:00,70.0,40.0,-100.00,SSE,150,12.0,22.0,33,-99.99,,,-99.99,,2013-06-11 20:02:00,
2013-06-11 14:02:00,73.0,38.0,-100.00,SSE,155,12.0,20.0,28,-99.99,,,-99.99,,2013-06-11 21:02:00,
2013-06-11 14:10:00,73.0,37.0,-100.00,SE,135,14.0,23.0,26,-99.99,,,-99.99,,2013-06-11 21:10:00,
2013-06-11 14:12:00,73.0,38.0,-100.00,SSE,155,12.0,20.0,28,-99.99,,,-99.99,,2013-06-11 21:12:00,
2013-06-11 15:03:00,73.0,37.0,-100.00,SE,135,14.0,23.0,26,-99.99,,,-99.99,,2013-06-11 22:03:00,
2013-06-11 16:02:00,73.0,35.0,-100.00,SE,145,17.0,22.0,24,-99.99,,,-99.99,,2013-06-11 23:02:00,
2013-06-11 16:12:00,73.0,35.0,-100.00,SE,145,17.0,22.0,24,-99.99,,,-99.99,,2013-06-11 23:12:00,
2013-06-11 17:02:00,72.0,33.0,-100.00,SSE,160,17.0,27.0,23,-99.99,,,-99.99,,2013-06-12 00:02:00,
2013-06-11 18:02:00,71.0,32.0,-100.00,SE,140,21.0,29.0,23,-99.99,,,-99.99,,2013-06-12 01:02:00,
2013-06-11 18:12:00,71.0,32.0,-100.00,SE,140,21.0,29.0,23,-99.99,,,-99.99,,2013-06-12 01:12:00,
2013-06-11 19:02:00,70.0,33.0,-100.00,SE,145,17.0,27.0,25,-99.99,,,-99.99,,2013-06-12 02:02:00,
2013-06-11 20:02:00,67.0,34.0,-100.00,SSE,150,17.0,24.0,29,-99.99,,,-99.99,,2013-06-12 03:02:00,
2013-06-11 20:12:00,67.0,34.0,-100.00,SSE,150,17.0,24.0,29,-99.99,,,-99.99,,2013-06-12 03:12:00,
2013-06-11 21:02:00,65.0,34.0,-100.00,SE,125,13.0,21.0,31,-99.99,,,-99.99,,2013-06-12 04:02:00,
2013-06-11 22:03:00,61.0,34.0,-100.00,SSE,150,13.0,20.0,36,-99.99,,,-99.99,,2013-06-12 05:03:00,
2013-06-11 22:12:00,61.0,34.0,-100.00,SSE,150,13.0,20.0,36,-99.99,,,-99.99,,2013-06-12 05:12:00,
2013-06-11 23:02:00,60.0,35.0,-100.00,SE,130,12.0,22.0,39,-99.99,,,-99.99,,2013-06-12 06:02:00,
2013-06-11 23:10:00,58.0,36.0,-100.00,SE,125,9.0,13.0,43,-99.99,,,-99.99,,2013-06-12 06:10:00,